Location: *
(57.8420°S, 159.8600°W)
Time: 13:00:19
(UTC+00:00)

Cosmos 2333 Rocket - Pass Details

Date: 18 May 2021
Orbit: 839 x 862 km, 70.8° (Epoch: 22 June)

Event Time Altitude Azimuth Distance (km) Brightness Sun altitude
Rises 05:54:12 0° 281° (W) 3,417 6.5 -26.9°
Reaches altitude 10° 05:56:55 10° 270° (W) 2,486 5.6 -27.2°
Maximum altitude 06:02:01 32° 207° (SSW) 1,438 3.6 -27.9°
Enters shadow 06:04:10 25° 170° (S) 1,678 3.7 -28.2°
